Location: Archemont
(49.1579°N, 1.7598°E)
Time: 21:07:03
(UTC+00:00)

Cosmos 2322 Rocket - Pass Details

Date: 03 February 2023
Orbit: 832 x 851 km, 71.0° (Epoch: 21 March)

Event Time Altitude Azimuth Distance (km) Brightness Sun altitude
Rises 19:59:32 0° 246° (WSW) 3,371 6.1 -30.7°
Reaches altitude 10° 20:02:21 10° 259° (W) 2,441 5.4 -31.1°
Maximum altitude 20:07:00 26° 316° (NW) 1,585 4.0 -31.9°
Enters shadow 20:10:04 17° 360° (N) 2,007 4.2 -32.4°
